Year,Month,Day,Hour,Minute,Value (Times are PST for temperature in C)
2008,03,24,00,00,2.90
2008,03,24,00,01,2.90
2008,03,24,00,02,2.80
2008,03,24,00,03,2.80
2008,03,24,00,04,2.70
2008,03,24,00,05,2.70
2008,03,24,00,06,2.70
2008,03,24,00,07,2.70
2008,03,24,00,08,2.60
2008,03,24,00,09,2.60
2008,03,24,00,10,2.50
2008,03,24,00,11,2.50
2008,03,24,00,12,2.50
2008,03,24,00,13,2.40
2008,03,24,00,14,2.40
2008,03,24,00,15,2.30
2008,03,24,00,16,2.30
2008,03,24,00,17,2.20
2008,03,24,00,18,2.20
2008,03,24,00,19,2.20
2008,03,24,00,20,2.20
2008,03,24,00,21,2.10
2008,03,24,00,22,2.10
2008,03,24,00,23,2.10
2008,03,24,00,24,2.00
2008,03,24,00,25,2.00
2008,03,24,00,26,2.00
2008,03,24,00,27,2.00
2008,03,24,00,28,2.10
2008,03,24,00,29,2.10
2008,03,24,00,30,2.20
2008,03,24,00,31,2.20
2008,03,24,00,32,2.20
2008,03,24,00,33,2.30
2008,03,24,00,34,2.30
2008,03,24,00,35,2.50
2008,03,24,00,36,2.60
2008,03,24,00,37,2.60
2008,03,24,00,38,2.70
2008,03,24,00,39,2.70
2008,03,24,00,40,2.70
2008,03,24,00,41,2.70
2008,03,24,00,42,2.70
2008,03,24,00,43,2.70
2008,03,24,00,44,2.70
2008,03,24,00,45,2.70
2008,03,24,00,46,2.70
2008,03,24,00,47,2.70
2008,03,24,00,48,2.70
2008,03,24,00,49,2.70
2008,03,24,00,50,2.70
2008,03,24,00,51,2.70
2008,03,24,00,52,2.60
2008,03,24,00,53,2.60
2008,03,24,00,54,2.60
2008,03,24,00,55,2.60
2008,03,24,00,56,2.50
2008,03,24,00,57,2.50
2008,03,24,00,58,2.50
2008,03,24,00,59,2.60
2008,03,24,01,00,2.60
2008,03,24,01,01,2.60
2008,03,24,01,02,2.60
2008,03,24,01,03,2.50
2008,03,24,01,04,2.50
2008,03,24,01,05,2.50
2008,03,24,01,06,2.50
2008,03,24,01,07,2.40
2008,03,24,01,08,2.40
2008,03,24,01,09,2.30
2008,03,24,01,10,2.20
2008,03,24,01,11,2.20
2008,03,24,01,12,2.20
2008,03,24,01,13,2.20
2008,03,24,01,14,2.20
2008,03,24,01,15,2.10
2008,03,24,01,16,2.10
2008,03,24,01,17,2.10
2008,03,24,01,18,2.10
2008,03,24,01,19,2.10
2008,03,24,01,20,2.10
2008,03,24,01,21,2.10
2008,03,24,01,22,2.00
2008,03,24,01,23,2.00
2008,03,24,01,24,2.00
2008,03,24,01,25,1.90
2008,03,24,01,26,1.90
2008,03,24,01,27,1.90
2008,03,24,01,28,1.80
2008,03,24,01,29,1.80
2008,03,24,01,30,1.80
2008,03,24,01,31,1.80
2008,03,24,01,32,1.80
2008,03,24,01,33,1.80
2008,03,24,01,34,1.80
2008,03,24,01,35,1.80
2008,03,24,01,36,1.80
2008,03,24,01,37,1.80
2008,03,24,01,38,1.80
2008,03,24,01,39,1.80
2008,03,24,01,40,1.80
2008,03,24,01,41,1.80
2008,03,24,01,42,1.80
2008,03,24,01,43,1.80
2008,03,24,01,44,1.80
2008,03,24,01,45,1.80
2008,03,24,01,46,1.80
2008,03,24,01,47,1.80
2008,03,24,01,48,1.80
2008,03,24,01,49,1.80
2008,03,24,01,50,1.70
2008,03,24,01,51,1.70
2008,03,24,01,52,1.70
2008,03,24,01,53,1.70
2008,03,24,01,54,1.60
2008,03,24,01,55,1.60
2008,03,24,01,56,1.60
2008,03,24,01,57,1.70
2008,03,24,01,58,1.70
2008,03,24,01,59,1.70
2008,03,24,02,00,1.70
2008,03,24,02,01,1.70
2008,03,24,02,02,1.80
2008,03,24,02,03,1.80
2008,03,24,02,04,1.80
2008,03,24,02,05,1.80
2008,03,24,02,06,1.80
2008,03,24,02,07,1.80
2008,03,24,02,08,1.80
2008,03,24,02,09,1.80
2008,03,24,02,10,1.80
2008,03,24,02,11,1.80
2008,03,24,02,12,1.70
2008,03,24,02,13,1.70
2008,03,24,02,14,1.70
2008,03,24,02,15,1.70
2008,03,24,02,16,1.70
2008,03,24,02,17,1.70
2008,03,24,02,18,1.60
2008,03,24,02,19,1.60
2008,03,24,02,20,1.60
2008,03,24,02,21,1.50
2008,03,24,02,22,1.50
2008,03,24,02,23,1.50
2008,03,24,02,24,1.40
2008,03,24,02,25,1.40
2008,03,24,02,26,1.30
2008,03,24,02,27,1.30
2008,03,24,02,28,1.30
2008,03,24,02,29,1.30
2008,03,24,02,30,1.30
2008,03,24,02,31,1.20
2008,03,24,02,32,1.20
2008,03,24,02,33,1.10
2008,03,24,02,34,1.10
2008,03,24,02,35,1.10
2008,03,24,02,36,1.10
2008,03,24,02,37,1.10
2008,03,24,02,38,1.10
2008,03,24,02,39,1.10
2008,03,24,02,40,1.10
2008,03,24,02,41,1.10
2008,03,24,02,42,1.10
2008,03,24,02,43,1.10
2008,03,24,02,44,1.10
2008,03,24,02,45,1.10
2008,03,24,02,46,1.10
2008,03,24,02,47,1.10
2008,03,24,02,48,1.00
2008,03,24,02,49,1.00
2008,03,24,02,50,1.00
2008,03,24,02,51,1.00
2008,03,24,02,52,1.00
2008,03,24,02,53,1.00
2008,03,24,02,54,0.90
2008,03,24,02,55,0.90
2008,03,24,02,56,0.90
2008,03,24,02,57,0.90
2008,03,24,02,58,0.90
2008,03,24,02,59,0.90
2008,03,24,03,00,0.90
2008,03,24,03,01,0.90
2008,03,24,03,02,0.90
2008,03,24,03,03,0.90
2008,03,24,03,04,0.90
2008,03,24,03,05,0.90
2008,03,24,03,06,0.90
2008,03,24,03,07,0.80
2008,03,24,03,08,0.80
2008,03,24,03,09,0.80
2008,03,24,03,10,0.80
2008,03,24,03,11,0.80
2008,03,24,03,12,0.80
2008,03,24,03,13,0.80
2008,03,24,03,14,0.80
2008,03,24,03,15,0.80
2008,03,24,03,16,0.80
2008,03,24,03,17,0.80
2008,03,24,03,18,0.80
2008,03,24,03,19,0.80
2008,03,24,03,20,0.80
2008,03,24,03,21,0.80
2008,03,24,03,22,0.80
2008,03,24,03,23,0.80
2008,03,24,03,24,0.80
2008,03,24,03,25,0.90
2008,03,24,03,26,0.90
2008,03,24,03,27,0.90
2008,03,24,03,28,0.90
2008,03,24,03,29,0.90
2008,03,24,03,30,0.90
2008,03,24,03,31,0.90
2008,03,24,03,32,0.90
2008,03,24,03,33,0.90
2008,03,24,03,34,0.90
2008,03,24,03,35,0.90
2008,03,24,03,36,0.90
2008,03,24,03,37,0.90
2008,03,24,03,38,0.80
2008,03,24,03,39,0.80
2008,03,24,03,40,0.80
2008,03,24,03,41,0.80
2008,03,24,03,42,0.80
2008,03,24,03,43,0.70
2008,03,24,03,44,0.70
2008,03,24,03,45,0.60
2008,03,24,03,46,0.60
2008,03,24,03,47,0.50
2008,03,24,03,48,0.50
2008,03,24,03,49,0.50
2008,03,24,03,50,0.40
2008,03,24,03,51,0.40
2008,03,24,03,52,0.40
2008,03,24,03,53,0.40
2008,03,24,03,54,0.40
2008,03,24,03,55,0.40
2008,03,24,03,56,0.40
2008,03,24,03,57,0.40
2008,03,24,03,58,0.40
2008,03,24,03,59,0.40
2008,03,24,04,00,0.40
2008,03,24,04,01,0.50
2008,03,24,04,02,0.50
2008,03,24,04,03,0.60
2008,03,24,04,04,0.60
2008,03,24,04,05,0.60
2008,03,24,04,06,0.70
2008,03,24,04,07,0.70
2008,03,24,04,08,0.70
2008,03,24,04,09,0.60
2008,03,24,04,10,0.60
2008,03,24,04,11,0.70
2008,03,24,04,12,0.70
2008,03,24,04,13,0.70
2008,03,24,04,14,0.70
2008,03,24,04,15,0.70
2008,03,24,04,16,0.70
2008,03,24,04,17,0.70
2008,03,24,04,18,0.70
2008,03,24,04,19,0.70
2008,03,24,04,20,0.70
2008,03,24,04,21,0.70
2008,03,24,04,22,0.70
2008,03,24,04,23,0.70
2008,03,24,04,24,0.70
2008,03,24,04,25,0.70
2008,03,24,04,26,0.80
2008,03,24,04,27,0.80
2008,03,24,04,28,0.80
2008,03,24,04,29,0.80
2008,03,24,04,30,0.90
2008,03,24,04,31,0.90
2008,03,24,04,32,0.90
2008,03,24,04,33,0.90
2008,03,24,04,34,0.90
2008,03,24,04,35,0.90
2008,03,24,04,36,0.90
2008,03,24,04,37,0.90
2008,03,24,04,38,0.90
2008,03,24,04,39,0.90
2008,03,24,04,40,0.90
2008,03,24,04,41,0.90
2008,03,24,04,42,0.90
2008,03,24,04,43,0.90
2008,03,24,04,44,0.90
2008,03,24,04,45,0.90
2008,03,24,04,46,0.80
2008,03,24,04,47,0.80
2008,03,24,04,48,0.80
2008,03,24,04,49,0.80
2008,03,24,04,50,0.80
2008,03,24,04,51,0.80
2008,03,24,04,52,0.80
2008,03,24,04,53,0.80
2008,03,24,04,54,0.80
2008,03,24,04,55,0.90
2008,03,24,04,56,0.90
2008,03,24,04,57,0.80
2008,03,24,04,58,0.80
2008,03,24,04,59,0.80
2008,03,24,05,00,0.80
2008,03,24,05,01,0.80
2008,03,24,05,02,0.70
2008,03,24,05,03,0.70
2008,03,24,05,04,0.70
2008,03,24,05,05,0.60
2008,03,24,05,06,0.60
2008,03,24,05,07,0.60
2008,03,24,05,08,0.60
2008,03,24,05,09,0.60
2008,03,24,05,10,0.50
2008,03,24,05,11,0.50
2008,03,24,05,12,0.50
2008,03,24,05,13,0.50
2008,03,24,05,14,0.50
2008,03,24,05,15,0.50
2008,03,24,05,16,0.50
2008,03,24,05,17,0.50
2008,03,24,05,18,0.50
2008,03,24,05,19,0.50
2008,03,24,05,20,0.50
2008,03,24,05,21,0.50
2008,03,24,05,22,0.50
2008,03,24,05,23,0.50
2008,03,24,05,24,0.50
2008,03,24,05,25,0.50
2008,03,24,05,26,0.50
2008,03,24,05,27,0.50
2008,03,24,05,28,0.50
2008,03,24,05,29,0.50
2008,03,24,05,30,0.50
2008,03,24,05,31,0.50
2008,03,24,05,32,0.50
2008,03,24,05,33,0.50
2008,03,24,05,34,0.50
2008,03,24,05,35,0.50
2008,03,24,05,36,0.50
2008,03,24,05,37,0.50
2008,03,24,05,38,0.50
2008,03,24,05,39,0.50
2008,03,24,05,40,0.50
2008,03,24,05,41,0.50
2008,03,24,05,42,0.50
2008,03,24,05,43,0.50
2008,03,24,05,44,0.60
2008,03,24,05,45,0.60
2008,03,24,05,46,0.60
2008,03,24,05,47,0.60
2008,03,24,05,48,0.60
2008,03,24,05,49,0.60
2008,03,24,05,50,0.60
2008,03,24,05,51,0.60
2008,03,24,05,52,0.60
2008,03,24,05,53,0.60
2008,03,24,05,54,0.60
2008,03,24,05,55,0.70
2008,03,24,05,56,0.70
2008,03,24,05,57,0.70
2008,03,24,05,58,0.70
2008,03,24,05,59,0.70
2008,03,24,06,00,0.70
2008,03,24,06,01,0.70
2008,03,24,06,02,0.60
2008,03,24,06,03,0.60
2008,03,24,06,04,0.60
2008,03,24,06,05,0.60
2008,03,24,06,06,0.60
2008,03,24,06,07,0.50
2008,03,24,06,08,0.50
2008,03,24,06,09,0.50
2008,03,24,06,10,0.50
2008,03,24,06,11,0.50
2008,03,24,06,12,0.40
2008,03,24,06,13,0.40
2008,03,24,06,14,0.40
2008,03,24,06,15,0.40
2008,03,24,06,16,0.40
2008,03,24,06,17,0.40
2008,03,24,06,18,0.40
2008,03,24,06,19,0.40
2008,03,24,06,20,0.30
2008,03,24,06,21,0.30
2008,03,24,06,22,0.30
2008,03,24,06,23,0.30
2008,03,24,06,24,0.30
2008,03,24,06,25,0.20
2008,03,24,06,26,0.20
2008,03,24,06,27,0.20
2008,03,24,06,28,0.20
2008,03,24,06,29,0.20
2008,03,24,06,30,0.20
2008,03,24,06,31,0.20
2008,03,24,06,32,0.20
2008,03,24,06,33,0.20
2008,03,24,06,34,0.30
2008,03,24,06,35,0.30
2008,03,24,06,36,0.30
2008,03,24,06,37,0.30
2008,03,24,06,38,0.40
2008,03,24,06,39,0.40
2008,03,24,06,40,0.40
2008,03,24,06,41,0.40
2008,03,24,06,42,0.40
2008,03,24,06,43,0.40
2008,03,24,06,44,0.40
2008,03,24,06,45,0.40
2008,03,24,06,46,0.40
2008,03,24,06,47,0.40
2008,03,24,06,48,0.40
2008,03,24,06,49,0.40
2008,03,24,06,50,0.40
2008,03,24,06,51,0.40
2008,03,24,06,52,0.40
2008,03,24,06,53,0.40
2008,03,24,06,54,0.40
2008,03,24,06,55,0.40
2008,03,24,06,56,0.40
2008,03,24,06,57,0.40
2008,03,24,06,58,0.40
2008,03,24,06,59,0.40
2008,03,24,07,00,0.30
2008,03,24,07,01,0.30
2008,03,24,07,02,0.30
2008,03,24,07,03,0.30
2008,03,24,07,04,0.30
2008,03,24,07,05,0.20
2008,03,24,07,06,0.20
2008,03,24,07,07,0.20
2008,03,24,07,08,0.20
2008,03,24,07,09,0.20
2008,03,24,07,10,0.10
2008,03,24,07,11,0.10
2008,03,24,07,12,0.10
2008,03,24,07,13,0.10
2008,03,24,07,14,0.10
2008,03,24,07,15,0.10
2008,03,24,07,16,0.10
2008,03,24,07,17,0.10
2008,03,24,07,18,0.10
2008,03,24,07,19,0.10
2008,03,24,07,20,0.20
2008,03,24,07,21,0.20
2008,03,24,07,22,0.20
2008,03,24,07,23,0.20
2008,03,24,07,24,0.20
2008,03,24,07,25,0.30
2008,03,24,07,26,0.30
2008,03,24,07,27,0.30
2008,03,24,07,28,0.30
2008,03,24,07,29,0.30
2008,03,24,07,30,0.30
2008,03,24,07,31,0.30
2008,03,24,07,32,0.30
2008,03,24,07,33,0.30
2008,03,24,07,34,0.20
2008,03,24,07,35,0.20
2008,03,24,07,36,0.20
2008,03,24,07,37,0.20
2008,03,24,07,38,0.30
2008,03,24,07,39,0.30
2008,03,24,07,40,0.30
2008,03,24,07,41,0.30
2008,03,24,07,42,0.30
2008,03,24,07,43,0.30
2008,03,24,07,44,0.40
2008,03,24,07,45,0.40
2008,03,24,07,46,0.40
2008,03,24,07,47,0.40
2008,03,24,07,48,0.40
2008,03,24,07,49,0.40
2008,03,24,07,50,0.40
2008,03,24,07,51,0.50
2008,03,24,07,52,0.50
2008,03,24,07,53,0.50
2008,03,24,07,54,0.50
2008,03,24,07,55,0.60
2008,03,24,07,56,0.60
2008,03,24,07,57,0.60
2008,03,24,07,58,0.70
2008,03,24,07,59,0.70
2008,03,24,08,00,0.70
2008,03,24,08,01,0.70
2008,03,24,08,02,0.80
2008,03,24,08,03,0.80
2008,03,24,08,04,0.90
2008,03,24,08,05,1.00
2008,03,24,08,06,1.10
2008,03,24,08,07,1.20
2008,03,24,08,08,1.30
2008,03,24,08,09,1.40
2008,03,24,08,10,1.50
2008,03,24,08,11,1.50
2008,03,24,08,12,1.60
2008,03,24,08,13,1.70
2008,03,24,08,14,1.80
2008,03,24,08,15,2.00
2008,03,24,08,16,2.10
2008,03,24,08,17,2.10
2008,03,24,08,18,2.20
2008,03,24,08,19,2.30
2008,03,24,08,20,2.40
2008,03,24,08,21,2.40
2008,03,24,08,22,2.50
2008,03,24,08,23,2.50
2008,03,24,08,24,2.50
2008,03,24,08,25,2.60
2008,03,24,08,26,2.70
2008,03,24,08,27,2.70
2008,03,24,08,28,2.70
2008,03,24,08,29,2.70
2008,03,24,08,30,2.70
2008,03,24,08,31,2.70
2008,03,24,08,32,2.70
2008,03,24,08,33,2.70
2008,03,24,08,34,2.80
2008,03,24,08,35,2.80
2008,03,24,08,36,2.80
2008,03,24,08,37,2.80
2008,03,24,08,38,2.80
2008,03,24,08,39,2.80
2008,03,24,08,40,2.80
2008,03,24,08,41,2.90
2008,03,24,08,42,2.90
2008,03,24,08,43,2.90
2008,03,24,08,44,2.90
2008,03,24,08,45,2.90
2008,03,24,08,46,2.90
2008,03,24,08,47,2.90
2008,03,24,08,48,2.90
2008,03,24,08,49,2.90
2008,03,24,08,50,3.10
2008,03,24,08,51,3.10
2008,03,24,08,52,3.10
2008,03,24,08,53,3.10
2008,03,24,08,54,3.10
2008,03,24,08,55,3.10
2008,03,24,08,56,3.20
2008,03,24,08,57,3.30
2008,03,24,08,58,3.30
2008,03,24,08,59,3.40
2008,03,24,09,00,3.50
2008,03,24,09,01,3.50
2008,03,24,09,02,3.60
2008,03,24,09,03,3.70
2008,03,24,09,04,3.80
2008,03,24,09,05,3.80
2008,03,24,09,06,3.90
2008,03,24,09,07,3.90
2008,03,24,09,08,4.00
2008,03,24,09,09,4.00
2008,03,24,09,10,4.10
2008,03,24,09,11,4.10
2008,03,24,09,12,4.20
2008,03,24,09,13,4.20
2008,03,24,09,14,4.20
2008,03,24,09,15,4.30
2008,03,24,09,16,4.30
2008,03,24,09,17,4.40
2008,03,24,09,18,4.40
2008,03,24,09,19,4.50
2008,03,24,09,20,4.50
2008,03,24,09,21,4.60
2008,03,24,09,22,4.60
2008,03,24,09,23,4.60
2008,03,24,09,24,4.60
2008,03,24,09,25,4.70
2008,03,24,09,26,4.70
2008,03,24,09,27,4.70
2008,03,24,09,28,4.80
2008,03,24,09,29,4.80
2008,03,24,09,30,4.80
2008,03,24,09,31,4.80
2008,03,24,09,32,4.90
2008,03,24,09,33,4.90
2008,03,24,09,34,4.90
2008,03,24,09,35,4.90
2008,03,24,09,36,4.90
2008,03,24,09,37,4.90
2008,03,24,09,38,4.90
2008,03,24,09,39,5.00
2008,03,24,09,40,5.10
2008,03,24,09,41,5.10
2008,03,24,09,42,5.10
2008,03,24,09,43,5.10
2008,03,24,09,44,5.10
2008,03,24,09,45,5.20
2008,03,24,09,46,5.20
2008,03,24,09,47,5.30
2008,03,24,09,48,5.30
2008,03,24,09,49,5.30
2008,03,24,09,50,5.30
2008,03,24,09,51,5.30
2008,03,24,09,52,5.30
2008,03,24,09,53,5.30
2008,03,24,09,54,5.30
2008,03,24,09,55,5.30
2008,03,24,09,56,5.30
2008,03,24,09,57,5.30
2008,03,24,09,58,5.30
2008,03,24,09,59,5.30
2008,03,24,10,00,5.40
2008,03,24,10,01,5.40
2008,03,24,10,02,5.40
2008,03,24,10,03,5.40
2008,03,24,10,04,5.50
2008,03,24,10,05,5.50
2008,03,24,10,06,5.50
2008,03,24,10,07,5.50
2008,03,24,10,08,5.60
2008,03,24,10,09,5.60
2008,03,24,10,10,5.70
2008,03,24,10,11,5.70
2008,03,24,10,12,5.70
2008,03,24,10,13,5.80
2008,03,24,10,14,5.90
2008,03,24,10,15,6.00
2008,03,24,10,16,6.10
2008,03,24,10,17,6.20
2008,03,24,10,18,6.30
2008,03,24,10,19,6.40
2008,03,24,10,20,6.40
2008,03,24,10,21,6.40
2008,03,24,10,22,6.40
2008,03,24,10,23,6.50
2008,03,24,10,24,6.60
2008,03,24,10,25,6.70
2008,03,24,10,26,6.70
2008,03,24,10,27,6.70
2008,03,24,10,28,6.70
2008,03,24,10,29,6.60
2008,03,24,10,30,6.60
2008,03,24,10,31,6.60
2008,03,24,10,32,6.60
2008,03,24,10,33,6.50
2008,03,24,10,34,6.40
2008,03,24,10,35,6.40
2008,03,24,10,36,6.40
2008,03,24,10,37,6.40
2008,03,24,10,38,6.30
2008,03,24,10,39,6.30
2008,03,24,10,40,6.40
2008,03,24,10,41,6.40
2008,03,24,10,42,6.40
2008,03,24,10,43,6.40
2008,03,24,10,44,6.40
2008,03,24,10,45,6.50
2008,03,24,10,46,6.60
2008,03,24,10,47,6.60
2008,03,24,10,48,6.60
2008,03,24,10,49,6.60
2008,03,24,10,50,6.60
2008,03,24,10,51,6.60
2008,03,24,10,52,6.60
2008,03,24,10,53,6.70
2008,03,24,10,54,6.70
2008,03,24,10,55,6.70
2008,03,24,10,56,6.60
2008,03,24,10,57,6.60
2008,03,24,10,58,6.50
2008,03,24,10,59,6.40
2008,03,24,11,00,6.40
2008,03,24,11,01,6.40
2008,03,24,11,02,6.40
2008,03,24,11,03,6.50
2008,03,24,11,04,6.60
2008,03,24,11,05,6.60
2008,03,24,11,06,6.60
2008,03,24,11,07,6.60
2008,03,24,11,08,6.60
2008,03,24,11,09,6.70
2008,03,24,11,10,6.80
2008,03,24,11,11,6.80
2008,03,24,11,12,6.80
2008,03,24,11,13,6.90
2008,03,24,11,14,7.00
2008,03,24,11,15,7.10
2008,03,24,11,16,7.20
2008,03,24,11,17,7.30
2008,03,24,11,18,7.30
2008,03,24,11,19,7.40
2008,03,24,11,20,7.50
2008,03,24,11,21,7.50
2008,03,24,11,22,7.60
2008,03,24,11,23,7.70
2008,03,24,11,24,7.70
2008,03,24,11,25,7.70
2008,03,24,11,26,7.70
2008,03,24,11,27,7.70
2008,03,24,11,28,7.80
2008,03,24,11,29,7.80
2008,03,24,11,30,7.80
2008,03,24,11,31,7.80
2008,03,24,11,32,7.90
2008,03,24,11,33,8.00
2008,03,24,11,34,8.00
2008,03,24,11,35,8.10
2008,03,24,11,36,8.10
2008,03,24,11,37,8.00
2008,03,24,11,38,8.00
2008,03,24,11,39,8.00
2008,03,24,11,40,8.00
2008,03,24,11,41,8.00
2008,03,24,11,42,8.00
2008,03,24,11,43,7.90
2008,03,24,11,44,7.90
2008,03,24,11,45,7.90
2008,03,24,11,46,7.90
2008,03,24,11,47,7.90
2008,03,24,11,48,7.90
2008,03,24,11,49,8.00
2008,03,24,11,50,8.00
2008,03,24,11,51,8.20
2008,03,24,11,52,8.30
2008,03,24,11,53,8.40
2008,03,24,11,54,8.50
2008,03,24,11,55,8.70
2008,03,24,11,56,8.80
2008,03,24,11,57,9.00
2008,03,24,11,58,9.10
2008,03,24,11,59,9.20
2008,03,24,12,00,9.30
2008,03,24,12,01,9.30
2008,03,24,12,02,9.20
2008,03,24,12,03,9.20
2008,03,24,12,04,9.20
2008,03,24,12,05,9.10
2008,03,24,12,06,8.90
2008,03,24,12,07,8.70
2008,03,24,12,08,8.60
2008,03,24,12,09,8.50
2008,03,24,12,10,8.50
2008,03,24,12,11,8.50
2008,03,24,12,12,8.50
2008,03,24,12,13,8.50
2008,03,24,12,14,8.50
2008,03,24,12,15,8.50
2008,03,24,12,16,8.40
2008,03,24,12,17,8.40
2008,03,24,12,18,8.30
2008,03,24,12,19,8.20
2008,03,24,12,20,8.20
2008,03,24,12,21,8.20
2008,03,24,12,22,8.20
2008,03,24,12,23,8.30
2008,03,24,12,24,8.40
2008,03,24,12,25,8.40
2008,03,24,12,26,8.50
2008,03,24,12,27,8.70
2008,03,24,12,28,8.70
2008,03,24,12,29,8.70
2008,03,24,12,30,8.70
2008,03,24,12,31,8.70
2008,03,24,12,32,8.90
2008,03,24,12,33,8.90
2008,03,24,12,34,8.90
2008,03,24,12,35,8.90
2008,03,24,12,36,8.90
2008,03,24,12,37,8.90
2008,03,24,12,38,9.00
2008,03,24,12,39,9.00
2008,03,24,12,40,9.00
2008,03,24,12,41,8.90
2008,03,24,12,42,8.90
2008,03,24,12,43,8.90
2008,03,24,12,44,8.90
2008,03,24,12,45,8.90
2008,03,24,12,46,8.90
2008,03,24,12,47,8.90
2008,03,24,12,48,8.80
2008,03,24,12,49,8.80
2008,03,24,12,50,8.80
2008,03,24,12,51,8.80
2008,03,24,12,52,8.90
2008,03,24,12,53,9.00
2008,03,24,12,54,9.10
2008,03,24,12,55,9.20
2008,03,24,12,56,9.20
2008,03,24,12,57,9.30
2008,03,24,12,58,9.30
2008,03,24,12,59,9.40
2008,03,24,13,00,9.40
2008,03,24,13,01,9.20
2008,03,24,13,02,9.20
2008,03,24,13,03,9.20
2008,03,24,13,04,9.10
2008,03,24,13,05,9.10
2008,03,24,13,06,8.90
2008,03,24,13,07,8.90
2008,03,24,13,08,8.90
2008,03,24,13,09,8.90
2008,03,24,13,10,8.90
2008,03,24,13,11,8.80
2008,03,24,13,12,8.90
2008,03,24,13,13,9.00
2008,03,24,13,14,9.10
2008,03,24,13,15,9.10
2008,03,24,13,16,9.20
2008,03,24,13,17,9.20
2008,03,24,13,18,9.20
2008,03,24,13,19,9.30
2008,03,24,13,20,9.30
2008,03,24,13,21,9.40
2008,03,24,13,22,9.50
2008,03,24,13,23,9.60
2008,03,24,13,24,9.70
2008,03,24,13,25,9.70
2008,03,24,13,26,9.70
2008,03,24,13,27,9.50
2008,03,24,13,28,9.40
2008,03,24,13,29,9.30
2008,03,24,13,30,9.20
2008,03,24,13,31,9.00
2008,03,24,13,32,9.00
2008,03,24,13,33,9.00
2008,03,24,13,34,9.00
2008,03,24,13,35,9.00
2008,03,24,13,36,9.10
2008,03,24,13,37,9.10
2008,03,24,13,38,9.10
2008,03,24,13,39,9.10
2008,03,24,13,40,9.00
2008,03,24,13,41,8.90
2008,03,24,13,42,8.90
2008,03,24,13,43,8.90
2008,03,24,13,44,8.90
2008,03,24,13,45,9.00
2008,03,24,13,46,9.00
2008,03,24,13,47,9.00
2008,03,24,13,48,9.00
2008,03,24,13,49,9.00
2008,03,24,13,50,9.00
2008,03,24,13,51,9.00
2008,03,24,13,52,9.00
2008,03,24,13,53,9.00
2008,03,24,13,54,9.00
2008,03,24,13,55,9.00
2008,03,24,13,56,8.90
2008,03,24,13,57,8.80
2008,03,24,13,58,8.80
2008,03,24,13,59,8.80
2008,03,24,14,00,8.70
2008,03,24,14,01,8.70
2008,03,24,14,02,8.70
2008,03,24,14,03,8.70
2008,03,24,14,04,8.70
2008,03,24,14,05,8.70
2008,03,24,14,06,8.70
2008,03,24,14,07,8.70
2008,03,24,14,08,8.70
2008,03,24,14,09,8.60
2008,03,24,14,10,8.60
2008,03,24,14,11,8.60
2008,03,24,14,12,8.50
2008,03,24,14,13,8.50
2008,03,24,14,14,8.50
2008,03,24,14,15,8.50
2008,03,24,14,16,8.60
2008,03,24,14,17,8.70
2008,03,24,14,18,8.80
2008,03,24,14,19,8.90
2008,03,24,14,20,9.00
2008,03,24,14,21,9.10
2008,03,24,14,22,9.40
2008,03,24,14,23,9.50
2008,03,24,14,24,9.50
2008,03,24,14,25,9.50
2008,03,24,14,26,9.40
2008,03,24,14,27,9.40
2008,03,24,14,28,9.30
2008,03,24,14,29,9.40
2008,03,24,14,30,9.40
2008,03,24,14,31,9.30
2008,03,24,14,32,9.30
2008,03,24,14,33,9.20
2008,03,24,14,34,9.20
2008,03,24,14,35,9.20
2008,03,24,14,36,9.20
2008,03,24,14,37,9.30
2008,03,24,14,38,9.40
2008,03,24,14,39,9.50
2008,03,24,14,40,9.60
2008,03,24,14,41,9.70
2008,03,24,14,42,9.70
2008,03,24,14,43,9.70
2008,03,24,14,44,9.70
2008,03,24,14,45,9.90
2008,03,24,14,46,9.90
2008,03,24,14,47,10.00
2008,03,24,14,48,10.10
2008,03,24,14,49,10.10
2008,03,24,14,50,10.10
2008,03,24,14,51,10.10
2008,03,24,14,52,10.10
2008,03,24,14,53,10.10
2008,03,24,14,54,10.10
2008,03,24,14,55,10.10
2008,03,24,14,56,10.10
2008,03,24,14,57,10.20
2008,03,24,14,58,10.30
2008,03,24,14,59,10.30
2008,03,24,15,00,10.30
2008,03,24,15,01,10.10
2008,03,24,15,02,9.90
2008,03,24,15,03,9.60
2008,03,24,15,04,9.40
2008,03,24,15,05,9.30
2008,03,24,15,06,9.20
2008,03,24,15,07,9.10
2008,03,24,15,08,9.00
2008,03,24,15,09,8.90
2008,03,24,15,10,8.70
2008,03,24,15,11,8.50
2008,03,24,15,12,8.40
2008,03,24,15,13,8.30
2008,03,24,15,14,8.20
2008,03,24,15,15,8.20
2008,03,24,15,16,8.20
2008,03,24,15,17,8.20
2008,03,24,15,18,8.20
2008,03,24,15,19,8.20
2008,03,24,15,20,8.20
2008,03,24,15,21,8.20
2008,03,24,15,22,8.20
2008,03,24,15,23,8.30
2008,03,24,15,24,8.20
2008,03,24,15,25,8.20
2008,03,24,15,26,8.30
2008,03,24,15,27,8.30
2008,03,24,15,28,8.40
2008,03,24,15,29,8.50
2008,03,24,15,30,8.60
2008,03,24,15,31,8.70
2008,03,24,15,32,8.90
2008,03,24,15,33,9.00
2008,03,24,15,34,9.10
2008,03,24,15,35,9.20
2008,03,24,15,36,9.30
2008,03,24,15,37,9.20
2008,03,24,15,38,9.20
2008,03,24,15,39,9.20
2008,03,24,15,40,9.10
2008,03,24,15,41,9.10
2008,03,24,15,42,9.10
2008,03,24,15,43,9.00
2008,03,24,15,44,8.90
2008,03,24,15,45,9.00
2008,03,24,15,46,9.00
2008,03,24,15,47,9.10
2008,03,24,15,48,9.20
2008,03,24,15,49,9.30
2008,03,24,15,50,9.40
2008,03,24,15,51,9.40
2008,03,24,15,52,9.40
2008,03,24,15,53,9.40
2008,03,24,15,54,9.40
2008,03,24,15,55,9.30
2008,03,24,15,56,9.30
2008,03,24,15,57,9.30
2008,03,24,15,58,9.30
2008,03,24,15,59,9.30
2008,03,24,16,00,9.20
2008,03,24,16,01,9.20
2008,03,24,16,02,9.10
2008,03,24,16,03,9.00
2008,03,24,16,04,9.00
2008,03,24,16,05,8.90
2008,03,24,16,06,8.80
2008,03,24,16,07,8.70
2008,03,24,16,08,8.70
2008,03,24,16,09,8.60
2008,03,24,16,10,8.60
2008,03,24,16,11,8.50
2008,03,24,16,12,8.50
2008,03,24,16,13,8.40
2008,03,24,16,14,8.40
2008,03,24,16,15,8.30
2008,03,24,16,16,8.30
2008,03,24,16,17,8.20
2008,03,24,16,18,8.20
2008,03,24,16,19,8.20
2008,03,24,16,20,8.20
2008,03,24,16,21,8.20
2008,03,24,16,22,8.10
2008,03,24,16,23,8.10
2008,03,24,16,24,8.00
2008,03,24,16,25,8.00
2008,03,24,16,26,7.90
2008,03,24,16,27,7.80
2008,03,24,16,28,7.80
2008,03,24,16,29,7.70
2008,03,24,16,30,7.70
2008,03,24,16,31,7.60
2008,03,24,16,32,7.60
2008,03,24,16,33,7.50
2008,03,24,16,34,7.50
2008,03,24,16,35,7.40
2008,03,24,16,36,7.30
2008,03,24,16,37,7.30
2008,03,24,16,38,7.20
2008,03,24,16,39,7.20
2008,03,24,16,40,7.20
2008,03,24,16,41,7.10
2008,03,24,16,42,7.10
2008,03,24,16,43,7.10
2008,03,24,16,44,7.10
2008,03,24,16,45,7.10
2008,03,24,16,46,7.10
2008,03,24,16,47,7.10
2008,03,24,16,48,7.10
2008,03,24,16,49,7.20
2008,03,24,16,50,7.20
2008,03,24,16,51,7.20
2008,03,24,16,52,7.20
2008,03,24,16,53,7.30
2008,03,24,16,54,7.30
2008,03,24,16,55,7.30
2008,03,24,16,56,7.30
2008,03,24,16,57,7.30
2008,03,24,16,58,7.40
2008,03,24,16,59,7.40
2008,03,24,17,00,7.40
2008,03,24,17,01,7.40
2008,03,24,17,02,7.50
2008,03,24,17,03,7.50
2008,03,24,17,04,7.50
2008,03,24,17,05,7.50
2008,03,24,17,06,7.60
2008,03,24,17,07,7.60
2008,03,24,17,08,7.60
2008,03,24,17,09,7.70
2008,03,24,17,10,7.70
2008,03,24,17,11,7.80
2008,03,24,17,12,7.80
2008,03,24,17,13,7.80
2008,03,24,17,14,7.80
2008,03,24,17,15,7.80
2008,03,24,17,16,7.80
2008,03,24,17,17,7.80
2008,03,24,17,18,7.80
2008,03,24,17,19,7.80
2008,03,24,17,20,7.80
2008,03,24,17,21,7.80
2008,03,24,17,22,7.80
2008,03,24,17,23,7.80
2008,03,24,17,24,7.80
2008,03,24,17,25,7.80
2008,03,24,17,26,7.80
2008,03,24,17,27,7.80
2008,03,24,17,28,7.80
2008,03,24,17,29,7.80
2008,03,24,17,30,7.80
2008,03,24,17,31,7.80
2008,03,24,17,32,7.80
2008,03,24,17,33,7.80
2008,03,24,17,34,7.70
2008,03,24,17,35,7.70
2008,03,24,17,36,7.70
2008,03,24,17,37,7.70
2008,03,24,17,38,7.60
2008,03,24,17,39,7.60
2008,03,24,17,40,7.60
2008,03,24,17,41,7.60
2008,03,24,17,42,7.50
2008,03,24,17,43,7.50
2008,03,24,17,44,7.40
2008,03,24,17,45,7.40
2008,03,24,17,46,7.30
2008,03,24,17,47,7.30
2008,03,24,17,48,7.30
2008,03,24,17,49,7.30
2008,03,24,17,50,7.20
2008,03,24,17,51,7.20
2008,03,24,17,52,7.20
2008,03,24,17,53,7.20
2008,03,24,17,54,7.10
2008,03,24,17,55,7.10
2008,03,24,17,56,7.10
2008,03,24,17,57,7.00
2008,03,24,17,58,7.00
2008,03,24,17,59,6.90
2008,03,24,18,00,6.90
2008,03,24,18,01,6.90
2008,03,24,18,02,6.80
2008,03,24,18,03,6.80
2008,03,24,18,04,6.80
2008,03,24,18,05,6.80
2008,03,24,18,06,6.80